Location: Newark
(48.4472°N, 1.4892°E)
Time: 12:34:53
(UTC+00:00)

A-11 Canister half - Visible Passes

Search period start: 17 November 2019 00:00
Search period end: 27 November 2019 00:00
Orbit: 1527 x 1682 km, 47.3° (Epoch: 16 November)

Date Brightness Start Highest point End Pass type
(mag) Time Alt. Az. Time Alt. Az. Time Alt. Az.
17 Nov 9.6 17:29:34 10° WNW 17:38:55 58° SSW 17:48:01 10° SE visible
17 Nov 10.7 19:35:33 10° W 19:42:23 23° SW 19:49:06 10° S visible
18 Nov 9.6 17:07:53 10° WNW 17:17:19 59° SSW 17:26:28 10° SE visible
18 Nov 10.7 19:13:47 10° W 19:20:50 24° SW 19:27:47 10° S visible
19 Nov 9.6 16:46:14 10° WNW 16:55:44 61° SSW 17:04:55 10° SE visible
19 Nov 10.7 18:52:01 10° W 18:59:18 25° SW 19:06:27 10° S visible
20 Nov 9.6 16:24:34 10° WNW 16:34:07 63° SSW 16:43:22 10° SE visible
20 Nov 10.7 18:30:17 10° W 18:37:45 27° SW 18:45:06 10° S visible
21 Nov 10.7 18:08:32 10° W 18:16:13 28° SW 18:23:45 10° S visible
22 Nov 10.7 17:46:48 10° W 17:54:40 30° SW 18:02:22 10° S visible
23 Nov 10.7 17:25:04 10° WNW 17:33:07 31° SW 17:40:58 10° SSE visible
24 Nov 10.8 17:03:21 10° WNW 17:11:34 33° SW 17:19:33 10° SSE visible
25 Nov 10.8 16:41:38 10° WNW 16:50:00 34° SW 16:58:09 10° SSE visible
